Regional Weather Roundup
Issued by NWS

Home | Current Version | Previous Version | Graphics & Text | Print | Product List | Glossary On
Versions: 1 2 3 4 5 6 7 8 9 10 11 12 13 14 15 16 17 18 19 20 21 22 23 24 25 26 27 28 29 30 31 32 33 34 35 36 37 38 39 40 41 42 43 44 45 46 47 48 49 50
000
ASUS43 KDMX 281806
RWRIA

WEATHER ROUNDUP FOR IOWA
NATIONAL WEATHER SERVICE DES MOINES IA
100 PM CDT FRI APR 28 2017

NOTE: "FAIR" INDICATES FEW OR NO CLOUDS BELOW 12,000 FEET WITH NO
SIGNIFICANT WEATHER AND/OR OBSTRUCTIONS TO VISIBILITY.

* - THESE STATIONS ARE NOT NWS STATIONS...THUS NOT UNDER NWS
QUALITY CONTROL.  THEY ALSO DO NOT REPORT WEATHER SUCH
AS PRECIPITATION OR FOG.

IAZ001>003-012>014-020>022-031>034-043>046-281900-
   NORTHWEST IOWA

CITY           SKY/WX    TMP DP  RH WIND       PRES   REMARKS
CARROLL *      LGT RAIN  34  34 100 NE10      29.89F WCI  26
CHEROKEE *     CLOUDY    42  33  72 E12       29.92R
DENISON *      RAIN      34  34 100 NE22      29.85F WCI  22
LE MARS *      MOSUNNY   45  32  61 NE16      29.91F
ORANGE CITY *  CLOUDY    43  34  70 E9G18     29.91R
SHELDON *      MOSUNNY   43  32  65 NE17      29.91S
SIOUX CITY     CLOUDY    43  31  62 E16       29.89F
6HR MIN TEMP:  34; 6HR MAX TEMP:  43; 6HR PCP: TRACE;

SPENCER        CLOUDY    44  32  62 NE16      29.91S
6HR MIN TEMP:  25; 6HR MAX TEMP:  44;

STORM LAKE *   CLOUDY    39  30  70 E14       29.91R WCI  31
$$

IAZ055>058-069>071-079>083-090>094-281900-
   SOUTHWEST IOWA

CITY           SKY/WX    TMP DP  RH WIND       PRES   REMARKS
ATLANTIC *     MIX PCPN  37  36  93 NE20G25   29.82S WCI  27
AUDUBON *      LGT RAIN  36  32  87 N16G26    29.84F WCI  26
CLARINDA *     CLOUDY    39  39 100 NE18      29.80S FOG     WCI  30
COUNCIL BLFS * PTSUNNY   39  39 100 NE21G29   29.80R WCI  29
CRESTON *      RAIN      37  37 100 NE21G28   29.79S WCI  27
HARLAN  *      CLOUDY    37  37 100 NE25G35   29.83F WCI  26
LAMONI         LGT RAIN  40  38  93 NE16G26   29.76F WCI  31
6HR MIN TEMP:  39; 6HR MAX TEMP:  41; 6HR PCP:  0.50;

RED OAK *      LGT RAIN  37  37 100 NE20G25   29.80F WCI  27
SHENANDOAH *   CLOUDY    39  37  93 NE17G26   29.79F WCI  30
$$

IAZ047>049-059>061-072>074-084-281900-
   CENTRAL IOWA

CITY           SKY/WX    TMP DP  RH WIND       PRES   REMARKS
AMES           LGT RAIN  38  36  92 NE15G22   29.88F WCI  29
6HR MIN TEMP:  35; 6HR MAX TEMP:  39; 6HR PCP:  0.23;

ANKENY *       LGT RAIN  39  36  87 NE12      29.87S WCI  32
BOONE *        LGT RAIN  37  36  93 NE14G21   29.87R WCI  29
CHARITON *     RAIN      39  37  93 NE12G17   29.80R WCI  32
DES MOINES     LGT RAIN  40  36  86 NE16G24   29.83F FOG     WCI  31
6HR MIN TEMP:  38; 6HR MAX TEMP:  40; 6HR PCP:  0.21;

GRINNELL*      LGT RAIN  39  35  86 NE17      29.86F WCI  30
KNOXVILLE *    RAIN      39  36  87 NE15G22   29.80F WCI  31
MARSHALLTOWN   LGT RAIN  39  36  89 NE14      29.87F WCI  31
6HR MIN TEMP:  34; 6HR MAX TEMP:  39; 6HR PCP:  0.09;

NEWTON *       CLOUDY    39  36  87 NE20G26   29.83F FOG     WCI  30
PELLA *        HVY RAIN  39  37  91 NE10      29.84F WCI  32
PERRY *        LGT RAIN  37  35  93 NE15      29.87F WCI  28
$$

IAZ004>006-015-016-023>025-035-036-281900-
   NORTH CENTRAL IOWA

CITY           SKY/WX    TMP DP  RH WIND       PRES   REMARKS
ALGONA *       PTSUNNY   43  32  65 NE9       29.92S
CLARION *      CLOUDY    43  32  65 NE12      29.91F
ESTHERVILLE    CLOUDY    42  33  70 N12       29.92S
6HR MIN TEMP:  26; 6HR MAX TEMP:  42;

FORT DODGE *   CLOUDY    39  30  70 NE6       29.92S WCI  35
MASON CITY     CLOUDY    43  31  62 NE7       29.93F
6HR MIN TEMP:  27; 6HR MAX TEMP:  43;

FOREST CITY *    N/A     45  28  53 N7        29.92S
WEBSTER CITY * LGT RAIN  39  34  81 NE13G18   29.90S WCI  32
IOWA FALLS *   LGT RAIN  40  33  76 NE13      29.91F WCI  33
$$

IAZ007>011-017>019-026>030-037>042-050>054-066-281900-
   NORTHEAST IOWA

CITY           SKY/WX    TMP DP  RH WIND       PRES   REMARKS
CEDAR RAPIDS   LGT RAIN  41  38  89 NE16      29.86F
6HR MIN TEMP:  35; 6HR MAX TEMP:  42; 6HR PCP:  0.04;

CHARLES CITY * CLOUDY    45  28  53 CALM      29.93S
CLINTON *      LGT RAIN  44  41  89 NE16      29.89F
DECORAH *      CLOUDY    45  30  57 NW3       29.92R
DUBUQUE        CLOUDY    43  33  68 E9        29.92R
6HR MIN TEMP:  33; 6HR MAX TEMP:  43;

MONTICELLO *   MIX PCPN  43  37  81 NE8       29.90F
OELWEIN *      LGT RAIN  43  34  70 NE8       29.93S
WATERLOO       LGT RAIN  42  34  73 NE8       29.92S
6HR MIN TEMP:  28; 6HR MAX TEMP:  44; 6HR PCP:  0.03;

$$

IAZ064-065-067-068-078-281900-
   EAST CENTRAL IOWA

CITY           SKY/WX    TMP DP  RH WIND       PRES   REMARKS
DAVENPORT      LGT RAIN  43  41  93 E14       29.88F
6HR MIN TEMP:  36; 6HR MAX TEMP:  45; 6HR PCP:  0.12;

IOWA CITY      LGT RAIN  43  38  82 NE9       29.88F
6HR MIN TEMP:  40; 6HR MAX TEMP:  43; 6HR PCP:  0.09;

MT. PLEASANT * DRIZZLE   42  42 100 NE13G18   29.80F
MUSCATINE *    LGT RAIN  45  41  87 NE10      29.86F
QUAD CITIES    LGT RAIN  45  41  86 E14       29.86F FOG
6HR MIN TEMP:  39; 6HR MAX TEMP:  46; 6HR PCP:  0.10;

$$

IAZ062-063-075>077-085>089-095>099-281900-
   SOUTHEAST IOWA

CITY           SKY/WX    TMP DP  RH WIND       PRES   REMARKS
BURLINGTON     CLOUDY    46  46 100 NE15      29.81F FOG
6HR MIN TEMP:  43; 6HR MAX TEMP:  46; 6HR PCP:  0.12;

FAIRFIELD *    CLOUDY    41  39  93 NE20G25   29.79F FOG
FORT MADISON * CLOUDY    46  45  93 E7        29.79F FOG
KEOKUK *       CLOUDY    52  50  93 NE10      29.76F FOG
OSKALOOSA *    LGT RAIN  40  37  91 NE20      29.81F WCI  30
CENTERVILLE *  LGT RAIN  41  41 100 NE16      29.77F
OTTUMWA        LGT RAIN  42  40  92 NE16      29.79F FOG
6HR MIN TEMP:  41; 6HR MAX TEMP:  42; 6HR PCP:  0.14;

WASHINGTON *   LGT RAIN  41  41 100 NE17      29.84F
$$

ABBREVIATIONS USED IN REMARKS
   TC - TEMPERATURES IN CELSIUS
  WCI - WIND CHILL INDEX
   HX - HEAT INDEX
  VSB - VISIBILITY
$$




USA.gov is the U.S. government's official web portal to all federal, state and local government web resources and services.